Theta_e
285 287 287 285 285 285 283 283 279 281 281 284 286 285 285 285 285 283 282 282 282 281 281 281 282 282 283 283 283 284 284 283 283 285 285 286 285 285 285 285 285 285 286 286
279 284 284 283 284 283 282 283 283 283 280 285 285 284 283 283 283 281 281 281 281 281 281 281 281 282 282 282 282 283 282 282 282 283 284 284 284 284 283 282 283 284 284 284
275 281 279 276 279 281 282 285 284 276 283 283 281 283 281 279 280 280 280 279 279 279 279 280 280 281 281 281 282 281 281 281 281 281 281 282 282 282 281 281 281 281 282 284
277 277 270 280 286 285 282 282 284 284 283 282 282 281 281 281 280 279 279 278 278 278 278 279 280 281 282 282 280 279 278 279 280 279 278 280 280 280 280 280 279 279 280 282
273 273 277 281 281 277 277 278 281 284 280 280 279 279 278 281 280 277 276 277 277 277 276 279 280 281 281 282 282 279 277 277 277 278 276 277 277 278 278 278 278 279 279 280
274 271 263 272 283 286 282 271 281 281 283 280 278 272 274 281 279 277 275 275 276 279 281 282 282 282 281 281 281 279 278 277 277 277 275 275 275 276 277 277 277 278 278 279
272 270 275 281 282 286 272 272 280 281 280 283 279 276 278 279 280 278 276 280 282 281 280 280 281 281 279 279 278 279 279 278 277 277 276 275 275 275 275 276 276 277 277 278
271 267 269 281 282 278 278 279 280 278 280 280 278 278 278 279 280 280 280 282 281 280 279 280 280 279 278 278 279 280 279 277 277 276 277 276 275 275 275 274 275 276 276 277
276 272 278 281 278 283 285 282 281 278 279 280 278 278 278 279 279 280 280 280 280 279 279 279 280 280 277 278 279 279 279 278 275 276 276 276 275 275 275 275 274 274 275 276
278 278 280 282 283 283 280 280 280 281 280 280 277 278 278 279 279 279 280 279 279 278 277 277 278 279 279 280 280 279 279 279 279 278 276 277 276 275 275 275 275 274 274 275
279 281 282 282 282 282 281 280 281 281 280 278 278 277 279 279 279 279 279 279 278 277 276 276 277 277 278 279 280 279 278 278 278 278 278 275 276 275 275 276 277 276 274 274
273 281 280 279 283 282 280 279 280 280 279 280 280 278 279 278 279 279 277 277 276 276 275 275 276 275 276 278 279 278 278 277 276 277 276 276 275 274 278 278 279 279 280 277
280 283 281 282 283 282 281 281 281 280 280 278 280 279 279 278 279 278 277 276 275 274 274 275 274 274 275 276 275 273 272 275 275 274 274 273 273 271 270 273 276 277 278 278
284 283 280 280 279 282 282 282 283 281 281 280 280 280 280 278 277 275 274 274 274 274 274 274 274 272 273 276 277 275 275 273 273 273 272 272 272 272 271 270 269 269 274 276
284 284 281 282 282 282 283 282 280 280 280 280 280 279 277 275 274 273 274 274 273 273 272 272 272 270 271 274 274 272 275 273 271 271 272 272 272 272 271 270 268 267 269 270
283 281 280 280 280 281 281 281 279 279 280 279 278 276 275 274 274 273 273 273 271 270 269 264 268 266 267 271 274 273 271 271 271 272 271 271 271 271 270 270 269 268 268 268
280 279 279 279 279 280 280 281 280 279 278 277 275 275 274 273 272 271 271 270 268 264 263 263 262 265 268 269 272 272 271 272 268 271 271 271 270 269 269 267 267 267 264 261
282 282 281 281 280 280 280 279 279 279 278 277 275 274 272 271 269 268 267 264 263 263 263 261 262 267 268 269 272 273 271 272 272 271 271 269 270 270 268 267 268 267 265 265
282 281 281 281 281 281 280 279 277 276 274 274 273 270 269 269 268 267 265 264 261 265 265 264 273 269 270 271 271 271 270 268 270 270 270 266 266 267 266 265 265 265 266 267
283 282 281 280 280 278 274 274 273 273 272 271 270 269 268 267 267 267 266 266 265 266 266 269 271 271 271 270 268 270 268 267 268 267 265 264 261 260 261 262 263 264 264 265
278 278 276 276 274 274 274 274 273 271 270 271 270 269 269 267 266 266 267 268 267 268 270 268 269 268 270 268 268 265 265 264 263 263 260 256 255 258 257 259 260 260 261 263
276 276 275 275 273 272 273 273 273 271 270 269 269 268 268 267 266 266 264 269 271 266 269 269 268 264 267 266 266 263 264 262 262 261 259 258 256 256 257 259 259 259 259 260
277 276 275 274 273 272 273 272 272 272 270 269 268 267 270 271 272 270 268 272 271 266 268 265 263 263 261 261 260 259 259 258 257 255 254 253 253 253 257 257 256 254 254 256
276 275 274 274 273 273 272 272 273 272 269 270 267 267 272 271 270 272 270 268 265 264 262 260 261 260 258 258 257 256 256 254 253 250 252 251 251 251 251 248 250 250 251 252
276 275 274 274 274 273 274 274 273 273 273 274 275 275 275 274 270 268 267 266 267 264 261 258 258 257 257 255 254 254 251 248 248 248 248 247 246 245 245 246 247 248 249 252
277 275 276 276 275 274 274 273 272 273 273 271 271 270 272 272 271 269 268 267 267 264 262 258 255 255 254 254 252 251 249 250 249 249 246 245 245 245 244 246 246 247 250 250
277 276 276 276 275 275 274 274 272 272 272 272 271 271 270 269 267 266 263 262 261 260 257 255 254 254 253 251 251 249 248 247 248 248 244 243 243 242 242 242 243 245 245 247
Wind_Speed
4 2 3 3 9 14 8 10 11 11 4 8 8 11 10 11 10 10 9 9 9 9 9 10 10 11 12 12 12 13 13 13 14 13 14 12 13 14 14 14 13 14 13 14
2 3 4 8 11 10 8 6 5 5 4 6 10 12 11 9 8 8 8 9 8 8 9 10 11 11 12 13 14 12 11 12 14 15 14 16 15 14 14 16 16 15 14 14
3 1 1 5 6 11 7 4 0 3 4 5 5 8 7 6 6 7 7 6 7 9 9 10 11 11 14 13 10 10 12 13 15 16 17 16 15 14 15 15 15 16 15 16
2 1 5 1 5 6 12 6 6 8 8 6 9 7 7 6 5 5 5 5 7 7 7 8 8 9 6 10 12 13 13 13 15 16 15 15 15 14 14 13 15 15 18 18
4 3 1 1 4 2 3 2 3 6 7 9 11 11 8 7 6 5 3 3 4 3 1 4 7 7 6 8 9 13 13 13 13 14 14 14 15 15 14 13 14 15 15 20
3 3 6 6 1 4 3 4 4 3 9 11 10 2 3 9 8 5 2 2 3 3 4 8 7 7 6 8 8 11 12 11 11 12 12 13 14 14 12 10 12 11 16 19
3 2 4 3 1 2 4 7 2 2 3 6 7 2 10 9 9 6 4 6 5 6 8 8 8 7 7 9 11 6 7 10 12 11 12 12 11 12 12 12 12 14 15 17
3 2 8 1 1 6 2 1 1 2 1 5 12 12 10 7 7 8 6 6 7 8 9 8 8 7 8 10 8 8 5 8 11 11 10 10 12 11 13 13 14 15 15 15
4 5 3 3 3 3 1 3 3 5 6 10 12 11 10 9 8 7 6 6 8 8 9 8 8 8 10 8 7 7 7 6 5 8 10 10 11 12 11 13 13 13 13 13
4 3 6 8 6 5 3 5 6 8 9 8 11 9 9 8 7 6 6 6 8 8 8 8 8 10 10 9 5 6 7 8 7 6 9 9 9 10 11 12 11 12 12 12
3 6 8 6 6 7 6 7 10 8 9 9 10 8 8 8 7 7 6 8 8 7 8 9 10 11 10 9 6 7 8 9 9 8 8 7 9 11 10 11 15 10 10 11
5 9 5 6 9 8 8 7 8 11 9 8 8 9 9 8 7 6 8 8 8 7 7 7 9 8 9 8 7 6 8 8 7 6 6 6 5 7 20 21 24 24 25 19
4 4 7 12 10 6 9 8 8 10 10 11 9 10 10 8 7 11 9 8 8 7 7 8 8 7 7 7 5 6 5 6 6 6 6 6 6 6 8 10 20 23 23 24
13 17 9 8 6 8 9 10 11 10 9 9 10 9 9 10 11 10 9 8 9 9 8 8 8 7 8 7 6 6 7 9 7 6 6 6 6 6 4 6 7 8 12 17
3 3 8 10 12 10 10 10 12 10 9 9 9 8 10 11 10 9 8 8 9 9 9 7 6 6 6 5 8 8 7 5 5 5 6 6 6 6 6 5 5 4 4 6
9 12 12 12 12 11 11 10 10 9 10 9 8 10 10 11 10 9 7 6 8 7 3 2 4 5 4 6 7 6 5 7 7 5 5 5 5 5 5 5 5 5 6 4
12 11 11 10 11 11 10 9 8 8 9 11 12 12 12 11 10 9 8 6 5 3 1 2 2 5 6 6 6 5 4 4 6 4 4 5 3 4 4 3 3 4 3 3
7 7 8 9 10 10 9 10 10 11 10 11 11 10 9 8 9 8 6 4 3 4 4 3 2 5 6 5 5 6 5 4 4 4 5 5 6 7 6 6 6 6 4 5
7 8 8 8 9 10 10 9 7 8 8 10 10 8 8 9 9 7 6 5 4 5 5 3 8 7 7 7 6 4 4 4 5 6 6 7 7 7 6 6 6 6 6 7
7 7 8 8 9 9 9 7 10 9 7 9 10 10 9 7 6 6 5 4 3 2 2 6 6 7 6 6 6 5 5 6 7 6 7 7 6 5 5 7 7 7 8 8
8 9 9 10 8 7 8 9 10 9 6 8 10 9 9 6 6 6 7 6 0 4 7 7 5 3 3 4 6 5 6 6 6 6 5 4 4 5 4 5 6 7 7 7
7 8 9 9 9 8 7 7 8 8 8 7 7 9 9 7 5 2 1 4 3 6 5 4 4 6 6 8 6 6 7 7 6 5 5 5 5 5 5 6 7 7 7 7
7 8 9 9 9 9 8 8 8 8 8 8 8 8 7 5 5 7 6 5 6 7 6 5 6 9 8 6 6 6 7 6 5 4 4 4 4 4 6 6 5 4 5 6
8 8 8 9 10 9 9 7 8 6 5 6 6 5 5 5 4 4 6 9 9 8 6 4 7 9 8 5 6 6 5 4 4 3 3 4 4 4 4 3 4 5 5 6
7 9 9 10 10 7 10 10 9 9 8 8 6 5 9 4 5 5 7 7 10 8 6 6 9 9 6 5 5 5 4 3 2 3 3 3 3 3 3 3 4 4 5 4
9 6 6 9 7 7 7 8 7 6 6 6 4 5 7 7 7 8 6 7 7 8 6 4 4 5 5 5 5 4 3 3 4 3 3 3 3 3 3 4 4 5 4 2
6 6 5 5 6 7 7 7 8 7 7 7 8 6 8 8 8 8 8 7 6 6 5 4 4 5 5 4 4 3 2 3 3 3 3 2 3 2 3 3 3 3 3 3
Wind_Direction
244 195 173 158 244 262 273 234 222 248 245 44 76 116 114 111 101 84 70 58 45 37 29 23 16 17 18 14 10 4 4 3 357 347 350 348 355 356 351 354 354 351 349 352
285 276 268 243 248 257 257 265 251 207 117 87 82 78 75 72 73 67 55 47 39 39 34 25 16 13 14 13 10 1 3 7 3 360 357 0 1 3 0 0 360 1 1 359
264 225 2 258 222 238 250 63 152 182 152 147 87 83 75 70 70 77 68 52 41 36 29 23 12 14 25 16 1 5 12 10 9 5 3 2 359 4 3 4 6 4 4 14
221 73 238 129 29 31 104 57 32 94 132 135 136 105 75 72 95 92 98 79 58 43 29 24 19 28 19 30 25 23 15 13 13 10 359 359 5 1 4 5 11 8 11 17
154 190 25 262 343 73 120 195 1 142 132 141 137 125 113 107 102 113 118 93 72 45 357 11 21 9 8 18 30 31 22 20 15 15 3 1 4 5 2 7 8 15 15 16
120 175 219 233 101 97 108 285 152 106 177 168 173 207 158 137 131 124 124 77 57 14 6 30 12 2 360 21 37 35 23 20 22 21 13 10 6 4 6 12 17 14 20 22
138 197 273 141 258 328 110 237 86 14 254 206 197 229 136 131 142 153 154 110 77 57 51 35 21 10 21 35 35 24 20 24 28 22 23 15 13 15 8 14 20 25 27 27
89 112 257 119 145 198 172 24 121 46 9 123 122 120 121 118 109 120 112 109 89 64 48 34 26 26 32 38 22 15 23 30 28 22 22 21 22 19 22 22 24 27 27 30
176 207 170 72 121 78 131 137 123 113 101 120 122 123 120 115 107 96 100 88 79 69 55 37 29 33 36 19 16 4 22 30 37 22 23 24 27 26 28 27 29 26 28 28
134 183 148 126 89 79 73 108 105 120 121 121 121 120 114 111 108 105 92 90 85 75 65 50 33 37 32 13 3 21 34 35 35 43 32 28 31 31 27 29 29 29 26 29
90 128 129 142 129 124 98 95 109 107 120 123 123 118 116 114 107 100 100 97 91 85 65 46 32 26 11 7 5 44 44 38 34 33 36 25 32 39 37 31 36 34 33 23
213 169 131 152 139 134 131 128 131 128 117 109 113 110 109 97 98 111 113 107 98 82 71 51 39 21 360 356 20 31 46 38 30 30 27 30 26 41 39 45 44 42 45 49
143 98 106 127 124 127 133 134 125 119 119 119 112 114 114 119 116 116 106 102 94 85 70 58 42 14 348 348 10 38 40 36 36 33 32 32 32 37 32 16 37 41 40 46
106 102 99 136 142 140 136 137 130 118 121 123 123 125 129 117 116 105 100 98 92 83 70 61 45 11 340 332 25 40 54 43 40 32 29 29 32 34 38 34 27 20 23 36
146 80 129 121 122 133 132 134 138 135 132 128 139 147 111 107 104 100 97 96 92 79 67 61 45 6 339 2 51 41 50 43 37 33 32 32 25 22 25 22 11 5 356 7
112 108 120 129 139 139 146 146 138 137 142 148 126 118 112 110 107 98 95 102 99 88 64 39 30 317 332 36 49 45 39 40 43 33 24 20 20 25 26 22 16 9 19 357
130 142 142 147 153 156 157 146 140 136 132 132 129 125 120 119 112 104 93 91 101 103 108 61 314 345 32 39 48 42 31 29 31 28 19 19 12 20 8 12 3 354 338 326
143 137 149 151 151 144 139 139 138 140 132 128 127 123 124 127 126 122 119 107 70 46 27 346 46 37 36 30 38 48 36 16 27 29 32 25 23 29 21 14 10 7 341 339
146 147 147 143 140 139 138 135 123 118 120 131 130 126 121 121 127 132 133 99 86 67 345 33 59 46 39 30 44 40 44 19 39 42 38 31 30 25 19 14 8 7 357 357
125 128 119 113 120 131 121 116 123 118 118 117 117 121 122 128 136 141 141 139 151 140 60 54 55 48 31 32 39 55 53 45 54 47 35 32 23 14 6 6 12 13 9 9
115 118 117 116 104 101 121 132 129 130 126 133 135 138 133 130 128 134 130 131 296 118 82 64 52 25 41 56 57 55 54 50 46 45 35 15 6 9 2 5 22 11 360 14
124 122 120 120 119 111 112 116 118 122 124 120 117 127 129 133 143 106 65 125 109 111 87 65 56 55 61 58 57 59 57 55 50 42 33 26 21 10 12 20 26 13 3 360
117 122 120 124 128 123 112 119 128 135 136 142 142 145 149 149 145 135 125 121 109 99 90 79 80 69 64 62 63 63 63 57 45 40 37 31 24 22 32 23 13 359 347 344
116 116 114 114 120 125 130 134 138 126 118 132 136 154 141 126 79 83 94 101 103 99 99 98 80 75 72 67 67 66 59 48 41 37 35 39 38 31 18 356 351 339 338 341
126 126 129 138 142 144 143 144 131 137 138 137 148 149 138 122 123 128 112 115 111 100 95 80 82 79 73 70 74 77 68 60 48 64 48 47 40 18 349 348 337 329 337 344
150 148 155 161 153 150 150 149 145 147 131 117 94 96 97 103 102 109 110 114 110 101 97 84 84 78 79 79 84 80 66 50 54 57 68 57 30 4 349 341 334 334 335 2
148 150 159 148 146 153 154 153 149 151 143 136 124 118 114 113 106 104 100 96 100 102 93 86 83 87 95 88 87 78 61 51 67 86 70 46 11 345 334 318 315 311 319 322